Location: Hopkins Observatory
(42.6965°N, 73.1843°W)
Time: 08:05:41
(UTC-04:00)

UOSAT-12 - Visible Passes

Search period start: 28 March 2017 00:00
Search period end: 07 April 2017 00:00
Orbit: 608 x 646 km, 64.6° (Epoch: 26 March)

Date Brightness Start Highest point End Pass type
(mag) Time Alt. Az. Time Alt. Az. Time Alt. Az.
28 Mar 9.5 22:36:55 10° NNW 22:38:31 19° N 22:38:31 19° N visible
29 Mar 9.4 21:17:57 10° N 21:20:12 13° NE 21:20:35 13° NE visible
29 Mar 9.6 22:56:31 10° NNW 22:57:52 19° NNW 22:57:52 19° NNW visible
30 Mar 8.9 21:36:54 10° N 21:39:58 21° NNE 21:39:58 21° NNE visible
30 Mar 9.9 23:16:24 10° NW 23:17:16 15° NW 23:17:16 15° NW visible
31 Mar 8.5 21:56:17 10° NNW 21:59:23 32° NNE 21:59:23 32° NNE visible
01 Apr 9.2 20:37:07 10° N 20:39:45 15° NE 20:41:33 12° ENE visible
01 Apr 8.4 22:15:56 10° NNW 22:18:51 38° NNW 22:18:51 38° NNW visible
02 Apr 8.5 20:56:13 10° NNW 21:00:02 25° NE 21:01:03 23° ENE visible
02 Apr 9.0 22:35:53 10° NW 22:38:21 29° WNW 22:38:21 29° WNW visible
03 Apr 7.6 21:15:40 10° NNW 21:20:08 45° NE 21:20:35 43° ENE visible
03 Apr 9.6 22:56:20 10° WNW 22:57:54 17° WNW 22:57:54 17° WNW visible
04 Apr 9.1 19:56:21 10° N 19:59:18 16° NE 20:02:14 10° ENE visible
04 Apr 7.0 21:35:22 10° NW 21:40:02 89° WSW 21:40:11 84° SSE visible
05 Apr 8.3 20:15:32 10° NNW 20:19:33 28° NE 20:22:32 15° E visible
05 Apr 8.0 21:55:24 10° NW 21:59:46 41° WSW 21:59:51 41° WSW visible
06 Apr 7.4 20:35:03 10° NNW 20:39:36 52° NE 20:42:15 23° ESE visible
06 Apr 9.2 22:16:00 10° WNW 22:19:19 20° WSW 22:19:34 19° WSW visible
